CZ-2C DEB, 43534

Orbit data source: Space-Track

CZ-2C DEB, 43534 is space debris in SSO originally from a launch on Mon, 09 Jul 2018 UTC launched from the Jiuquan Satellite Launch Center, China (JSC). Debris objects in space refer to the collection of defunct objects orbiting the Earth. Examples of debris include non-operational satellites, rocket bodies, and fragments generated from explosions, collisions, or faulty payload assembly.

Loading next visibility...
CZ-2C DEB details
Identifier
43534, 2018-056F
Orbit
SSO
Last TLE update11 hours ago
Origin
Flag of CNCNSA (CN / PRC)
ManufacturerCAST?
MissionSpacecraft
Bus & MotorUnknown
Mass~50 kg wet, ~50 kg dry
Launch date (UTC)
2018-07-09 (6 years ago)
Launch vehicleUnknown
Launch site
Jiuquan Satellite Launch Center, China (JSC)
Object type
Payload
Rocket body
Debris
Shape & HBRCone, 2.9 m
Radar Cross Section3.657 m², Large (>1 m²)

Expand to show TLE details & history

TLE from 11 hours ago
0 CZ-2C DEB
1 43534U 18056F   24361.35937945  .00021795  00000-0  13603-2 0  9999
2 43534  98.0781 140.8378 0018470  68.2641 292.0551 15.09379200352079
Epoch: 2024-12-26T08:37Z
Definitive object data (Epoch: 2024-12-26T08:37:30.384Z)
Latitude0.00005°
Longitude-83.87871°
Altitude536.374 km
Speed7.597 km/s
True Right ascension09h 23m 21s
True Declination0° 00' 00"
Sunlit
Object was in full shadow at TLE epoch
Visualization TLE readout
Latitude-81.64675°
Longitude-9.39054°
Altitude577.835 km
Speed7.564 km/s
Apparent Right ascension07h 31m 43s
Apparent Declination-67° 16' 03"
Sunlit
Object is in daylight
Visualization observer readout
Local Sidereal Time18:45:04
Azimuth189.542° SSW
Elevation-61.896°
Doppler factor1
Orbital elements
Apogee altitude547.874 km
Perigee altitude522.337 km
Semi-major axis6,913.243 km
Eccentricity0.001847
Inclination98.0781°
RAAN140.8378°
Arg. of periapsis68.2641°
True anomaly291.85877°
Mean anomaly292.0551°
Eccentric anomaly291.95695°
Mean motion3.7759 °/min
BSTAR0.0013603
Orbital period95.34 mins
Loading maneuver chart data...
Loading historical data...
Loading historical data...
Loading historical data...
Loading historical data...
Loading historical data...
Loading historical data...
Loading historical data...

CZ-2C DEB Visibility forecast

Observer location: undefined°, undefined

Span
Click to sort rows by Start time (UTC) header in descending order
Start Az.
Max El. time (UTC)
Max El. Az.
Max El.
End time (UTC)
End Az.
6 mins2024-12-26 21:55:25.752Z35.594° NE2024-12-26 21:58:25.752Z99.986° ESE29.635°2024-12-26 22:01:25.752Z161.911° S
4 mins2024-12-27 08:39:25.752Z97.357° ESE2024-12-27 08:40:25.752Z78.388° E17.729°2024-12-27 08:43:25.752Z24.066° NE
4 mins2024-12-27 10:13:25.752Z220.936° SW2024-12-27 10:15:25.752Z270.086° WNW24.458°2024-12-27 10:17:25.752Z312.109° NW
|